Location: Alfortville
(48.8058°N, 2.4204°E)
Time: 14:34:47
(UTC+00:00)

Meteor 1-19 Rocket - Pass Details

Date: 07 December 2023
Orbit: 806 x 928 km, 81.2° (Epoch: 01 March)

Event Time Altitude Azimuth Distance (km) Brightness Sun altitude
Rises 04:32:54 0° 358° (N) 3,590 7.4 -27.9°
Reaches altitude 10° 04:36:40 10° 21° (NNE) 2,637 6.9 -27.3°
Maximum altitude 04:40:00 15° 55° (NE) 2,280 7.0 -26.8°
Drops below altitude 10° 04:43:18 10° 89° (E) 2,606 7.8 -26.2°
Sets 04:46:58 0° 112° (ESE) 3,523 8.6 -25.6°
